Location: Ferintosh
(52.7647°N, 112.9692°W)
Time: 22:59:19
(UTC+00:00)

A-11 Canister half - Pass Details

Date: 22 May 2024
Orbit: 1524 x 1683 km, 47.3° (Epoch: 20 June)

Event Time Altitude Azimuth Distance (km) Brightness Sun altitude
Rises 07:01:53 0° 254° (WSW) 4,712 11.5 -16.5°
Reaches altitude 10° 07:04:56 10° 251° (WSW) 3,746 10.9 -16.6°
Maximum altitude 07:14:16 64° 174° (S) 1,745 9.0 -16.7°
Drops below altitude 10° 07:23:56 10° 96° (E) 3,873 11.0 -16.7°
Sets 07:27:08 0° 94° (E) 4,879 11.6 -16.7°
